Grafenwoehr, Germany

10:21 AM CEST on September 04, 2015 (GMT +0200)
Grafenwohr Army Air Field | | Change Station
CLOSE
Current Station
Airport
Location: Grafenwoehr,
Elevation: 1362 ft
Nearby Weather Stations

Elev 1362 ft 49.70 °N, 11.94 °E | Updated 23 minutes ago

Mostly Cloudy
Mostly Cloudy
55 °F
Feels Like 55 °F
N
0
Wind Variable Wind from North

Today
High -- | Low -- °F
--% Chance of Precip.
Yesterday
High -- | Low -- °F
Precip. -- in
6:31 AM 7:50 PM
Waning Gibbous, 62% visible
Pressure 30.00 in
Visibility 6.2 miles
Clouds Mostly Cloudy 9500 ft
Dew Point 55 °F
Humidity 100%
Rainfall 0.01 in
Snow Depth Not available.
UV 2 out of 12
Pollen Not available.
Air Quality Not available.
Flu Activity Not available.
METAR ETIC 040758Z AUTO 00000KT 9999 BKN095 13/13 A3000 RMK AO2 SLP159
Pressure 30.00 in
Visibility 6.2 miles
Clouds Mostly Cloudy 9500 ft
Dew Point 55 °F
Humidity 100%
Rainfall 0.01 in
Snow Depth Not available.
UV 2 out of 12
Pollen Not available.
Air Quality Not available.
Flu Activity Not available.
METAR ETIC 040758Z AUTO 00000KT 9999 BKN095 13/13 A3000 RMK AO2 SLP159

10-Day Weather Forecast

×

Almanac

Astronomy

Sep. 04, 2015 Rise Set
Actual Time
Civil Twilight
Nautical Twilight
Astronomical Twilight
Moon
Length of Visible Light
Length of Day
Tomorrow will be .
, % of the Moon is Illuminated

Today's Extremes

Country Highs Country Lows

Community

WunderPhotos

Upload Photos

1,852,141 photos uploaded!

WunderBlogs® & News

Nearby

Air Quality

  Air Quality AQ Index Pollutant
Not available.

Snow Depth

Station Depth Elevation

Earthquake Activity

City Distance Mag. Time & Date
Minimum magnitude displayed is 2.5.

Coastal Water Temperatures

Place Temperature

Stations

Nearby Weather Stations

Station Location Temp. Windchill Dew Point Humidity Wind Precip. Elev Updated Type